Theta_e
318 318 318 318 318 319 319 319 319 319 319 318 318 317 316 316 316 317 318 318 318 318 320 321 323 326 314 299 304 316 353 357 333 319 312 312 314 313 308 310 319 323 324 326 328 331 329
318 318 319 319 319 318 318 318 318 318 318 318 317 316 316 316 316 316 317 317 318 319 319 321 325 326 309 296 308 324 336 325 317 311 310 313 315 316 311 309 307 313 322 325 325 328 330
318 318 318 318 318 318 318 318 318 318 318 318 317 317 316 317 317 316 316 316 317 319 320 322 325 323 306 303 317 318 316 314 312 311 309 316 319 311 309 304 310 314 319 321 324 324 325
318 318 318 318 318 318 318 318 318 318 317 317 316 316 316 316 316 315 315 314 316 319 321 324 326 314 301 312 317 315 313 309 309 310 313 317 317 310 305 307 308 313 311 307 317 323 324
318 318 318 318 318 318 317 317 317 317 317 317 316 316 315 315 315 314 313 314 318 320 322 325 309 306 303 322 315 318 312 311 309 308 311 319 310 303 305 300 298 303 299 304 310 323 322
318 318 318 318 317 318 317 317 317 317 317 316 315 315 315 314 314 313 313 314 320 320 322 323 321 301 308 309 314 315 312 313 311 310 312 308 302 299 297 297 293 296 296 300 301 311 319
318 318 317 317 317 317 317 317 317 316 316 315 315 314 314 313 313 312 308 309 305 304 309 299 299 302 309 312 315 310 312 312 309 308 301 302 299 295 297 298 299 298 298 298 303 307 308
318 318 317 317 317 317 317 317 317 316 315 315 315 314 314 313 313 311 308 299 305 307 299 309 309 308 311 310 307 309 314 308 305 300 301 300 297 302 302 301 300 298 297 298 302 306 307
318 318 318 317 317 317 317 317 316 316 316 315 314 314 313 313 311 307 302 303 306 306 299 306 309 308 310 310 307 307 311 306 303 300 298 296 301 305 303 300 299 296 295 297 298 302 311
319 318 317 317 317 317 316 316 316 316 315 314 314 313 312 311 303 305 306 309 309 307 296 301 303 309 309 308 305 312 311 308 301 301 299 298 302 302 299 298 298 292 301 302 301 298 292
318 318 317 317 317 317 316 316 316 316 314 313 313 312 311 310 300 306 311 309 304 305 290 306 304 314 308 305 304 306 310 307 302 301 299 298 299 299 298 301 300 299 302 300 300 296 292
319 318 318 317 317 316 316 315 315 315 314 313 312 311 310 306 305 306 309 308 306 297 292 303 307 304 304 302 302 307 307 310 307 301 300 300 304 303 302 304 302 304 298 295 293 291 287
319 318 317 317 316 316 315 315 315 314 313 312 311 309 309 309 303 310 308 306 296 293 305 301 299 301 299 298 300 302 304 301 300 294 293 300 302 303 305 300 300 296 292 288 287 285 286
318 318 317 316 316 316 315 315 315 314 313 311 308 308 307 309 308 308 306 303 294 302 301 304 301 299 298 299 298 299 300 298 301 298 295 294 294 300 303 302 298 295 293 288 283 283 287
318 317 317 316 316 315 315 315 314 313 312 310 307 303 303 308 309 307 305 294 296 301 305 303 301 298 298 301 298 298 296 297 299 301 297 293 296 304 304 303 303 295 290 292 287 284 286
318 317 317 316 316 315 315 315 314 313 311 309 305 306 310 312 310 308 301 295 299 305 307 303 296 299 295 300 299 297 297 305 305 304 301 298 294 300 305 304 300 298 298 291 288 285 282
318 317 316 316 316 315 316 315 313 312 310 309 309 306 311 309 308 304 295 295 303 308 307 302 299 298 298 298 298 297 299 304 306 308 302 298 295 298 301 298 298 295 292 290 290 288 286
317 317 316 316 315 315 316 314 313 310 309 307 311 302 312 308 302 296 297 300 304 304 305 304 304 302 300 300 298 298 299 301 307 307 300 302 294 291 298 301 303 299 294 291 289 287 286
317 317 316 316 315 315 315 314 312 310 309 304 307 305 310 308 297 297 298 302 303 302 301 302 300 301 301 298 295 300 300 306 306 305 299 301 295 291 296 297 300 299 299 295 292 291 288
317 317 316 316 316 316 315 313 311 310 309 307 304 301 303 302 299 298 296 296 298 305 302 302 300 300 298 296 296 296 298 304 305 305 318 308 294 294 291 294 297 298 302 301 294 291 292
317 316 316 316 316 316 315 313 312 310 309 304 301 298 299 296 298 297 296 296 298 298 301 301 298 299 296 293 294 294 297 298 301 308 300 296 289 292 296 299 297 298 300 301 297 297 294
316 316 316 316 316 316 315 314 312 310 309 303 298 297 299 298 297 296 295 293 296 297 298 296 296 299 297 294 294 293 295 293 295 297 294 293 289 290 289 294 295 297 297 296 298 301 298
315 315 316 315 315 316 316 315 313 310 307 301 302 300 300 297 295 294 295 296 299 299 299 302 300 297 295 297 299 300 298 297 294 293 291 290 288 287 284 291 292 289 292 295 298 304 303
316 317 315 314 314 315 316 315 314 311 307 302 301 299 296 294 296 297 299 300 300 298 296 299 300 296 300 301 299 296 294 292 292 292 292 289 288 286 285 286 282 291 302 304 307 310 311
316 316 315 314 314 315 316 315 315 312 311 303 301 299 296 292 297 297 297 297 296 296 295 298 300 300 299 297 293 289 289 289 291 295 293 291 288 286 284 283 289 296 301 300 298 299 312
315 316 315 314 314 314 314 315 315 313 311 301 300 300 298 292 292 299 295 296 293 292 294 296 300 299 298 292 291 285 285 287 289 294 293 292 290 290 285 283 283 295 304 307 304 294 307
315 315 316 315 314 314 314 314 314 313 311 301 300 299 298 293 294 295 294 295 296 293 291 291 296 296 297 292 290 288 288 293 289 288 288 288 287 287 287 287 291 302 305 307 293 294 306
314 315 315 315 314 313 313 314 314 313 312 300 298 299 299 294 295 300 300 297 296 294 291 292 291 293 294 290 289 290 289 291 289 290 289 288 286 286 287 285 285 305 304 298 301 304 307
314 315 315 315 314 314 313 313 313 313 312 305 294 299 301 297 297 301 303 304 302 301 297 293 293 292 295 292 291 291 291 290 287 287 293 289 292 290 291 290 298 302 303 306 306 304 304
Wind_Speed
14 15 14 14 14 14 14 14 14 13 13 13 14 13 13 13 12 12 12 12 12 12 13 13 12 11 3 3 9 3 9 11 7 6 5 3 1 1 3 3 1 3 4 4 7 6 5
15 15 15 15 15 15 15 15 15 14 14 14 14 14 14 13 13 12 12 13 14 13 13 12 10 10 1 2 2 6 8 5 5 4 3 3 3 2 2 2 0 4 4 5 3 3 4
15 15 16 16 16 16 16 16 15 15 15 15 15 14 14 13 13 13 13 14 14 13 12 10 7 3 1 13 2 3 5 5 7 5 4 3 2 4 1 5 3 5 4 5 2 2 5
16 16 16 16 16 16 16 17 16 16 16 16 16 16 15 14 14 14 15 15 16 13 9 6 4 1 8 4 2 1 4 2 2 3 1 3 1 0 1 3 7 4 4 5 3 3 1
16 16 17 17 17 17 17 17 17 17 16 16 17 16 16 15 15 15 16 17 14 6 4 1 0 1 10 5 2 4 4 5 5 2 3 1 2 3 6 4 5 7 1 2 8 6 3
16 17 17 18 18 17 17 17 18 17 16 17 17 16 16 15 14 15 18 12 1 4 1 3 3 3 5 1 3 3 1 2 4 2 3 4 6 4 5 6 2 3 5 6 6 3 5
17 17 18 18 19 18 18 18 19 19 19 18 17 16 15 14 13 12 9 2 3 3 1 8 4 3 4 7 2 2 4 5 3 6 2 3 5 5 7 5 3 2 2 6 18 8 6
18 18 19 19 19 19 19 19 19 19 20 19 16 16 12 10 9 8 3 2 4 2 6 9 3 7 4 3 4 2 5 6 3 2 1 7 5 8 2 4 4 3 4 10 13 10 7
18 18 19 19 19 19 20 20 20 20 19 19 17 15 13 9 8 2 3 7 3 4 1 5 5 4 5 8 5 5 7 4 4 3 3 6 7 5 4 2 2 4 5 5 9 8 3
18 17 18 19 20 20 20 21 21 21 21 20 16 14 10 7 2 3 5 2 3 5 5 4 2 3 4 4 3 4 5 6 1 9 6 6 5 5 5 4 7 6 8 8 7 1 4
18 18 18 19 20 21 22 22 22 22 22 20 17 13 7 4 2 3 0 6 5 3 5 1 2 2 1 5 2 2 3 5 7 6 6 10 3 4 3 7 7 11 3 3 3 2 3
18 18 19 20 21 22 23 23 23 23 21 21 17 10 3 3 2 7 6 4 3 7 1 2 4 4 5 1 2 3 3 5 3 4 2 8 2 5 9 3 8 2 1 5 4 3 3
18 19 19 20 21 23 24 24 24 24 22 20 14 7 7 3 2 4 3 4 6 5 3 3 2 3 3 2 2 3 6 5 5 2 4 7 10 4 6 4 1 4 6 4 5 6 7
18 19 20 21 22 23 24 25 25 25 23 20 16 11 7 5 2 6 3 6 4 2 3 3 4 2 4 2 1 2 5 2 3 5 2 1 11 1 3 7 5 7 8 8 6 4 6
19 19 20 21 22 24 26 26 27 26 23 19 4 1 1 5 7 0 7 4 3 1 3 5 2 6 5 3 2 3 2 2 4 9 9 4 9 3 5 5 5 2 4 4 8 3 2
19 19 20 22 23 24 26 27 28 27 24 18 2 1 3 3 5 4 7 4 3 4 5 2 3 2 1 5 4 4 2 4 6 5 3 4 6 2 2 2 0 5 7 3 4 3 4
19 20 21 22 24 25 27 28 28 29 26 12 2 5 4 2 1 7 3 5 5 3 1 1 2 3 3 2 1 3 3 3 5 8 3 3 3 8 4 4 6 1 1 6 5 5 7
19 20 21 23 24 25 27 29 29 29 27 3 3 5 3 2 5 1 1 4 4 5 5 6 6 5 3 4 4 3 3 2 9 4 3 2 4 4 10 3 3 2 3 5 6 5 1
18 20 21 22 24 26 27 28 28 28 21 2 4 1 3 4 3 4 6 3 3 9 7 6 5 5 5 4 1 2 2 2 7 4 2 4 2 4 11 6 4 7 4 4 4 3 7
18 19 20 22 24 26 28 30 29 28 20 2 4 3 5 5 1 2 3 4 3 5 5 5 3 6 5 5 4 0 4 3 7 3 5 4 1 6 7 6 2 5 6 3 3 2 3
17 19 20 21 23 25 28 30 32 31 19 2 5 1 2 1 3 3 1 2 4 5 5 7 4 4 2 2 5 1 2 4 5 2 2 5 4 5 7 7 4 8 7 8 5 7 6
17 17 18 20 22 24 26 29 31 34 18 7 4 2 4 2 2 2 4 3 3 4 3 3 3 2 2 2 4 3 2 3 6 3 3 1 4 1 6 7 3 4 9 10 9 6 6
17 18 17 19 20 22 24 26 28 33 17 5 3 2 3 4 3 3 1 1 3 2 1 3 2 1 3 0 4 7 6 5 0 1 2 1 3 2 5 4 6 6 5 5 2 6 3
14 15 16 18 20 20 22 24 25 27 16 2 1 2 4 1 2 1 3 1 2 3 2 2 3 3 1 6 3 2 3 4 1 5 4 4 3 2 4 3 3 5 4 4 4 2 4
13 14 15 16 18 19 20 22 23 23 22 4 2 3 3 1 0 2 4 2 3 4 2 2 2 1 5 5 4 6 6 5 3 4 5 3 4 1 0 2 6 2 5 5 5 3 7
12 13 13 15 16 18 19 20 21 22 22 3 2 0 3 4 3 1 1 1 0 2 6 2 4 4 5 4 4 3 3 2 5 8 4 5 5 3 2 2 6 1 8 5 2 4 10
11 12 12 13 15 16 17 19 20 21 21 3 2 3 4 2 4 2 2 3 4 2 1 4 6 8 3 3 3 2 2 1 2 3 5 5 4 0 1 3 3 4 12 6 2 5 5
10 10 11 11 12 14 15 17 18 19 20 7 2 4 3 1 6 5 3 3 1 2 3 4 4 4 4 5 2 1 1 1 2 3 3 1 1 3 2 2 6 4 5 4 5 4 4
9 10 10 10 11 12 13 15 16 16 18 11 2 2 1 3 5 3 5 4 4 7 6 1 4 3 4 5 0 2 0 1 3 3 3 2 6 3 7 7 4 3 4 5 4 6 5
Wind_Direction
13 8 8 4 357 357 355 352 350 346 343 340 341 341 337 333 332 330 326 327 323 319 319 320 320 325 321 14 255 15 69 116 118 133 136 159 154 84 337 334 274 232 275 205 241 160 184
12 8 3 360 357 354 353 351 347 344 341 339 338 338 334 331 328 326 323 322 318 315 313 313 317 320 339 258 284 5 115 131 127 120 147 183 188 180 268 280 148 293 260 286 207 219 196
9 5 2 357 355 353 350 347 346 342 339 337 336 333 331 329 326 323 320 315 314 309 305 307 311 304 109 236 73 338 145 170 161 155 160 221 188 62 326 319 291 321 318 339 218 199 209
5 1 360 355 352 350 347 345 342 340 336 334 333 332 330 329 326 322 318 313 308 300 296 288 285 304 248 248 317 277 157 140 181 190 132 177 228 251 119 316 5 32 40 10 309 184 216
6 0 356 353 351 348 344 341 339 337 333 330 331 330 329 327 326 323 318 310 301 274 239 229 294 88 270 323 260 205 166 131 143 143 241 244 83 66 21 46 17 7 358 300 320 211 123
3 0 356 351 348 345 340 338 337 334 331 331 329 327 327 326 326 326 318 306 63 123 217 202 253 340 272 182 174 150 174 92 84 104 84 54 49 69 35 55 243 321 338 307 258 291 209
1 358 356 350 345 342 339 336 334 333 333 330 327 325 325 324 324 332 344 55 26 343 348 193 196 243 322 306 145 176 138 95 40 44 109 10 66 226 226 197 208 274 247 279 290 262 267
359 356 352 347 343 338 335 332 331 329 331 329 325 321 318 318 319 322 324 178 206 188 307 226 253 290 291 341 352 76 134 103 110 185 77 18 274 240 178 180 196 211 295 286 280 272 174
357 352 347 342 340 335 333 330 329 327 327 329 323 318 313 313 313 282 214 229 35 21 121 295 182 198 219 141 218 240 131 122 137 152 155 160 233 92 165 223 323 245 204 261 234 338 261
353 349 344 341 338 334 331 329 328 327 329 330 323 317 309 310 318 173 239 250 289 182 59 281 270 271 137 149 241 201 163 136 119 197 157 229 257 229 206 231 161 297 185 247 269 192 245
350 347 344 340 337 333 331 330 329 327 330 331 326 316 296 234 312 208 117 336 127 77 63 316 131 138 132 152 158 195 215 63 174 182 124 249 222 205 196 220 164 232 35 341 302 183 33
349 346 344 340 338 334 332 330 330 329 330 331 327 316 215 173 222 247 315 313 56 44 55 45 124 146 123 322 32 69 108 58 140 144 247 242 259 196 215 262 174 260 266 41 56 73 353
349 347 343 341 338 335 333 331 332 332 333 331 321 260 178 172 208 315 288 58 42 101 330 339 110 156 125 152 177 123 153 180 184 87 329 320 259 247 169 291 79 100 67 327 347 10 225
350 346 344 342 339 337 335 334 334 335 336 336 334 144 223 230 294 344 78 46 79 267 297 347 53 72 102 130 236 128 90 186 184 108 88 354 324 180 147 186 189 184 159 160 200 211 258
351 347 345 344 341 340 338 336 336 338 338 339 149 224 224 260 200 324 72 60 213 256 283 338 21 79 358 24 87 84 95 281 252 181 180 192 261 287 188 174 146 208 200 188 107 17 46
350 346 346 345 344 342 340 339 339 338 339 338 189 95 341 61 160 71 74 235 245 219 318 13 89 48 84 339 62 50 70 317 323 199 194 282 290 258 341 157 114 179 159 65 7 156 244
348 346 347 347 346 344 342 341 342 341 340 337 74 63 304 14 25 49 144 231 286 261 273 241 111 80 77 30 358 55 3 212 353 325 91 166 153 287 336 193 196 121 223 54 121 137 172
347 346 348 348 347 347 346 344 344 344 342 65 85 60 299 15 52 34 136 206 321 327 4 36 79 70 77 42 33 83 106 357 333 325 11 348 151 269 235 273 307 215 147 146 131 242 258
349 349 349 349 348 349 348 346 348 348 354 350 79 128 323 79 85 331 309 334 42 17 23 27 46 38 25 56 85 72 6 252 9 44 31 331 322 354 335 357 11 49 4 92 101 78 195
352 351 351 350 350 351 350 349 350 352 351 41 83 71 340 49 46 119 2 351 26 20 42 57 68 57 53 35 5 222 338 324 339 329 33 103 124 186 201 231 194 306 326 21 120 133 195
351 352 352 352 352 353 354 353 351 353 353 58 26 137 187 358 353 60 70 338 5 16 18 36 49 63 62 353 348 350 234 307 299 303 50 95 249 224 251 260 271 259 260 257 230 231 204
351 352 352 353 354 356 357 357 356 355 350 76 86 69 5 87 304 103 8 20 40 337 33 354 94 294 109 146 203 262 228 214 237 2 54 3 253 301 285 282 278 280 283 262 248 228 235
349 355 354 355 357 358 360 2 4 3 2 71 342 8 101 311 12 73 300 53 7 313 108 70 308 136 95 257 274 240 214 244 21 289 230 211 152 87 267 347 346 311 250 258 264 51 350
345 355 355 357 359 360 1 4 8 11 26 85 358 92 68 306 79 109 357 40 25 359 266 346 34 59 238 329 280 338 355 2 123 9 174 139 139 134 246 2 218 252 342 27 97 65 358
344 348 353 356 358 1 2 5 9 10 11 65 353 70 79 83 292 333 2 3 355 330 4 287 339 311 330 24 45 11 342 21 7 50 35 142 125 21 204 214 286 77 1 349 3 300 11
341 345 349 353 356 359 3 6 7 9 9 64 43 349 87 110 258 306 330 11 254 331 345 326 320 322 51 78 74 134 235 292 317 336 72 71 66 125 121 207 235 312 303 320 236 247 356
333 340 343 348 352 356 360 4 7 7 8 39 16 17 85 84 262 160 194 198 124 114 187 307 338 356 32 59 81 149 249 291 299 309 337 347 350 240 277 260 277 302 309 296 149 258 310
322 330 334 340 346 350 354 359 4 6 5 24 283 1 87 172 272 202 240 164 110 92 125 269 43 350 30 60 100 234 150 278 1 288 307 236 349 294 1 266 274 330 348 5 228 274 268
312 319 326 328 337 344 348 352 357 1 5 14 353 360 354 154 247 268 254 264 208 188 139 19 178 193 190 94 140 125 296 53 148 284 331 304 183 218 185 235 242 301 240 262 230 238 270